Le nostre stazioni meteo in Italia

Pubblicità
Il mio iltempo24.it
Bologna, Italia (16132): Temperatura & dewpoint: 16.10.2018 08:00:00 - 22.10.2018 08:00:00 (CEST)Bologna, Italia (16132): reduced air pressure: 16.10.2018 08:00:00 - 22.10.2018 08:00:00 (CEST)Bologna, Italia (16132): precipitazioni: 16.10.2018 08:00:00 - 22.10.2018 08:00:00 (CEST)
Data & Tempo tt [°C] td [°C] ppp [hPa] rr [mm]
22.10.2018 08:00:00 - - - -
22.10.2018 07:00:00 - - - -
22.10.2018 06:00:00 - - - -
22.10.2018 05:00:00 - - - -
22.10.2018 04:00:00 - - - -
22.10.2018 03:00:00 - - - -
22.10.2018 02:00:00 - - - -
22.10.2018 01:00:00 - - - -
22.10.2018 00:00:00 - - - -
21.10.2018 23:00:00 - - - -
21.10.2018 22:00:00 - - - -
21.10.2018 21:00:00 - - - -
21.10.2018 20:00:00 - - - -
21.10.2018 19:00:00 - - - -
21.10.2018 18:00:00 - - - -
21.10.2018 17:00:00 19,1 11,4 1018,3 -
21.10.2018 16:00:00 20,0 12,7 1018,2 -
21.10.2018 15:00:00 20,3 12,2 1018,4 -
21.10.2018 14:00:00 18,5 12,2 1018,9 0,0
21.10.2018 13:00:00 18,1 11,4 1019,9 -
21.10.2018 12:00:00 16,8 11,7 1020,7 -
21.10.2018 11:00:00 15,9 11,2 1021,1 -
21.10.2018 10:00:00 14,5 11,4 1021,4 -
21.10.2018 09:00:00 12,4 9,4 1021,3 -
21.10.2018 08:00:00 12,4 9,4 1020,4 0,0
21.10.2018 07:00:00 12,9 9,9 1020,6 -
21.10.2018 06:00:00 12,9 9,9 1020,9 -
21.10.2018 05:00:00 12,8 10,0 1021,3 -
21.10.2018 04:00:00 13,1 10,1 1021,9 -
21.10.2018 03:00:00 13,4 10,4 1022,6 -
21.10.2018 02:00:00 14,1 11,0 1022,9 0,0
21.10.2018 01:00:00 15,0 11,5 1023,1 -
21.10.2018 00:00:00 14,8 11,7 1023,2 -
20.10.2018 23:00:00 15,4 12,1 1023,7 -
20.10.2018 22:00:00 15,7 12,0 1023,1 -
20.10.2018 21:00:00 16,5 12,6 1022,8 -
20.10.2018 20:00:00 17,6 12,0 1023,1 0,0
20.10.2018 19:00:00 19,3 11,5 1022,3 -
20.10.2018 18:00:00 22,2 13,2 1022,2 -
20.10.2018 17:00:00 22,7 13,1 1022,2 -
20.10.2018 16:00:00 22,5 13,2 1022,7 -
20.10.2018 15:00:00 22,7 13,9 1023,2 -
20.10.2018 14:00:00 21,6 13,7 1023,7 0,0
20.10.2018 13:00:00 20,1 13,2 1024,2 -
20.10.2018 12:00:00 19,5 12,7 1024,2 -
20.10.2018 11:00:00 18,0 13,8 1024,2 -
20.10.2018 10:00:00 15,6 12,5 1023,9 -
20.10.2018 09:00:00 13,2 10,5 1023,4 -
20.10.2018 08:00:00 12,3 9,5 1022,7 0,0
20.10.2018 07:00:00 12,8 10,0 1022,3 -
20.10.2018 06:00:00 13,0 10,1 1021,8 -
20.10.2018 05:00:00 13,2 10,3 1021,6 -
20.10.2018 04:00:00 13,6 10,7 1021,6 -
20.10.2018 03:00:00 14,2 11,3 1021,6 -
20.10.2018 02:00:00 14,7 11,8 1021,3 0,0
20.10.2018 01:00:00 15,2 12,3 1021,0 -
20.10.2018 00:00:00 15,5 12,4 1020,7 -
19.10.2018 23:00:00 16,5 13,3 1020,5 -
19.10.2018 22:00:00 16,8 13,4 1020,3 -
19.10.2018 21:00:00 17,5 13,9 1019,6 -
19.10.2018 20:00:00 18,5 12,8 1019,3 -
19.10.2018 19:00:00 19,8 11,8 1018,7 -
19.10.2018 18:00:00 22,3 13,3 1018,1 -
19.10.2018 17:00:00 23,3 13,7 1017,9 -
19.10.2018 16:00:00 23,5 14,4 1017,9 -
19.10.2018 15:00:00 23,4 14,3 1018,1 -
19.10.2018 14:00:00 22,2 14,2 1018,3 0,0
19.10.2018 13:00:00 21,4 14,9 1019,1 -
19.10.2018 12:00:00 20,0 14,9 1019,5 -
19.10.2018 11:00:00 18,1 14,5 1019,5 -
19.10.2018 10:00:00 15,7 12,6 1019,3 -
19.10.2018 09:00:00 14,4 11,7 1018,6 -
19.10.2018 08:00:00 13,6 10,9 1018,1 0,0
19.10.2018 07:00:00 13,8 11,1 1017,7 -
19.10.2018 06:00:00 14,0 11,3 1017,9 -
19.10.2018 05:00:00 14,2 11,5 1017,8 -
19.10.2018 04:00:00 14,5 11,8 1017,9 -
19.10.2018 03:00:00 14,8 12,1 1017,8 -
19.10.2018 02:00:00 15,3 12,6 1017,8 0,0
19.10.2018 01:00:00 15,7 12,8 1017,7 -
19.10.2018 00:00:00 16,0 13,0 1017,4 -
18.10.2018 23:00:00 16,4 13,4 1017,1 -
18.10.2018 22:00:00 16,9 13,9 1016,8 -
18.10.2018 21:00:00 17,8 14,6 1016,2 -
18.10.2018 20:00:00 18,6 13,6 1016,0 0,0
18.10.2018 19:00:00 19,8 13,2 1015,7 -
18.10.2018 18:00:00 21,7 14,3 1015,3 -
18.10.2018 17:00:00 22,4 14,7 1015,5 -
18.10.2018 16:00:00 22,3 14,6 1015,6 -
18.10.2018 15:00:00 22,2 14,5 1015,9 -
18.10.2018 14:00:00 21,8 14,8 1016,3 0,0
18.10.2018 13:00:00 21,0 14,6 1017,0 -
18.10.2018 12:00:00 19,8 15,2 1017,5 -
18.10.2018 11:00:00 19,1 14,9 1017,5 -
18.10.2018 10:00:00 18,0 15,0 1017,5 -
18.10.2018 09:00:00 16,6 13,8 1017,7 -
18.10.2018 08:00:00 16,2 13,4 1017,3 0,0
18.10.2018 07:00:00 16,0 13,2 1017,1 -
18.10.2018 06:00:00 16,0 13,2 1017,2 -
18.10.2018 05:00:00 16,1 13,3 1017,5 -
18.10.2018 04:00:00 16,0 13,2 1017,9 -
18.10.2018 03:00:00 16,0 13,2 1018,2 -
18.10.2018 02:00:00 15,9 13,1 1018,6 0,0
18.10.2018 01:00:00 15,8 13,0 1018,8 -
18.10.2018 00:00:00 16,4 13,6 1019,1 -
17.10.2018 23:00:00 16,5 13,5 1019,1 -
17.10.2018 22:00:00 17,2 14,0 1019,2 -
17.10.2018 21:00:00 17,3 14,1 1018,8 -
17.10.2018 20:00:00 17,7 13,7 1018,7 0,0
17.10.2018 19:00:00 18,0 14,2 1018,4 -
17.10.2018 18:00:00 18,2 13,6 1018,2 -
17.10.2018 17:00:00 18,3 14,1 1018,4 -
17.10.2018 16:00:00 18,2 14,4 1018,7 -
17.10.2018 15:00:00 17,7 14,5 1019,0 -
17.10.2018 14:00:00 17,5 14,3 1019,5 0,0
17.10.2018 13:00:00 17,3 14,1 1020,1 -
17.10.2018 12:00:00 16,8 13,8 1020,5 -
17.10.2018 11:00:00 16,4 13,6 1020,6 -
17.10.2018 10:00:00 16,5 13,5 1020,6 -
17.10.2018 09:00:00 16,4 13,6 1020,4 -
17.10.2018 08:00:00 16,1 13,3 1019,9 0,0
17.10.2018 07:00:00 16,0 13,2 1020,0 -
17.10.2018 06:00:00 15,9 13,1 1019,9 -
17.10.2018 05:00:00 15,9 13,5 1019,8 -
17.10.2018 04:00:00 16,0 13,6 1020,3 -
17.10.2018 03:00:00 16,0 13,4 1020,7 -
17.10.2018 02:00:00 16,0 13,6 1020,8 0,0
17.10.2018 01:00:00 15,8 13,4 1021,1 -
17.10.2018 00:00:00 15,8 13,2 1021,2 -
16.10.2018 23:00:00 15,8 13,2 1021,4 -
16.10.2018 22:00:00 15,7 13,1 1021,4 -
16.10.2018 21:00:00 15,5 12,9 1021,3 -
16.10.2018 20:00:00 15,7 12,9 1021,2 0,0
16.10.2018 19:00:00 16,0 13,2 1021,0 -
16.10.2018 18:00:00 16,3 13,5 1021,0 -
16.10.2018 17:00:00 16,6 13,6 1020,9 -
16.10.2018 16:00:00 16,8 13,6 - -
16.10.2018 15:00:00 17,0 13,8 1020,8 -
16.10.2018 14:00:00 16,9 13,7 1021,0 0,0
16.10.2018 13:00:00 16,4 13,4 1021,2 -
16.10.2018 12:00:00 16,6 13,4 1021,3 -
16.10.2018 11:00:00 16,4 13,4 1021,2 -
16.10.2018 10:00:00 15,8 13,0 1021,0 -
16.10.2018 09:00:00 15,4 12,7 1020,8 -
16.10.2018 08:00:00 15,5 12,8 1020,3 0,0

tt = Temperatura
td = dewpoint
ppp = reduced air pressure
rr = precipitazioni

Stazioni seguenti

WeatherPro
AMSI
MeteoEarth